{"data":{"norad_id":63553,"intl_designator":"2025-075F","name":"STARLINK-11697 [DTC]","alt_names":[],"object_type":"PAYLOAD","status":"ACTIVE","operator":null,"country":"US","launch_date":"2025-04-13","launch_site_code":"AFETR","launch_vehicle":null,"mission":null,"orbit_class":"UNKNOWN","rcs_meters":null,"size_class":null,"mass_kg":null,"dimensions":null,"purposes":["comms"],"wikipedia_slug":null,"has_3d_model":false,"image_url":null,"decayed_at":null,"tle_current":{"epoch":"2026-09-20T21:46:16.594464Z","epoch_age_seconds":120359,"freshness":"FRESH","line1":"1 63553U 25075F   26263.90713651  .00120972  00000+0  93128-3 0  9998","line2":"2 63553  42.9996  56.8839 0002370 271.5403  88.5193 15.70872215 83953","mean_motion":15.70872215,"eccentricity":0.000237,"inclination_deg":42.9996,"raan_deg":56.8839,"arg_perigee_deg":271.5403,"mean_anomaly_deg":88.5193,"bstar":0.00093128,"rev_number":8395,"period_min":91.668818523218,"perigee_km":354.80690066616,"apogee_km":357.99907261983,"semimajor_km":6734.539986643,"source":"CELESTRAK","updated_at":"2026-09-21T09:00:35.020094Z"}}}